�������l�o���
Date,Time,MP-1(��Sv/h),MP-2(��Sv/h),MP-3(��Sv/h),MP-4(��Sv/h),MP-5(��Sv/h),MP-6(��Sv/h),MP-7(��Sv/h),MP-8(��Sv/h),����,����(m/s),���J
2022/06/25,00:00,0.595,0.868,0.548,1.037,0.741,0.349,0.599,0.565,��,1.2,��
2022/06/25,00:10,0.595,0.867,0.548,1.036,0.738,0.349,0.601,0.566,��,1.1,��
2022/06/25,00:20,0.597,0.868,0.547,1.038,0.737,0.349,0.599,0.566,���k��,1.2,��
2022/06/25,00:30,0.594,0.866,0.546,1.038,0.737,0.349,0.600,0.567,�k�k��,1.7,��
2022/06/25,00:40,0.594,0.866,0.548,1.037,0.737,0.350,0.601,0.565,�k�k��,2.3,��
2022/06/25,00:50,0.593,0.867,0.547,1.036,0.740,0.349,0.601,0.564,�k�k��,1.7,��
2022/06/25,01:00,0.594,0.865,0.547,1.038,0.735,0.348,0.600,0.565,���k��,0.9,��
2022/06/25,01:10,0.594,0.865,0.546,1.037,0.735,0.350,0.600,0.565,���쓌,1.2,��
2022/06/25,01:20,0.593,0.866,0.547,1.036,0.739,0.350,0.599,0.565,��,1.4,��
2022/06/25,01:30,0.595,0.866,0.548,1.037,0.738,0.348,0.599,0.565,�쓌,1.4,��
2022/06/25,01:40,0.594,0.865,0.545,1.037,0.736,0.349,0.600,0.565,�쓌,2.0,��
2022/06/25,01:50,0.593,0.866,0.547,1.038,0.735,0.348,0.600,0.565,��쓌,1.4,��
2022/06/25,02:00,0.594,0.865,0.547,1.038,0.738,0.349,0.599,0.565,��쓌,1.4,��
2022/06/25,02:10,0.593,0.867,0.546,1.035,0.739,0.347,0.601,0.565,��쓌,3.1,��
2022/06/25,02:20,0.593,0.868,0.547,1.036,0.736,0.350,0.599,0.565,��,3.5,��
2022/06/25,02:30,0.594,0.867,0.546,1.038,0.737,0.350,0.601,0.565,��,3.8,��
2022/06/25,02:40,0.593,0.865,0.545,1.038,0.737,0.349,0.599,0.566,��,3.7,��
2022/06/25,02:50,0.593,0.866,0.545,1.036,0.737,0.349,0.600,0.565,��,4.0,��
2022/06/25,03:00,0.595,0.865,0.547,1.036,0.739,0.349,0.599,0.567,��,5.7,��
2022/06/25,03:10,0.594,0.866,0.548,1.039,0.738,0.350,0.599,0.567,��,6.0,��
2022/06/25,03:20,0.593,0.865,0.546,1.038,0.739,0.350,0.601,0.566,��쐼,5.1,��
2022/06/25,03:30,0.592,0.865,0.546,1.039,0.738,0.349,0.601,0.566,��쐼,4.7,��
2022/06/25,03:40,0.594,0.865,0.547,1.037,0.738,0.350,0.599,0.566,��쐼,4.4,��
2022/06/25,03:50,0.592,0.866,0.546,1.037,0.736,0.348,0.600,0.567,��쐼,3.6,��
2022/06/25,04:00,0.594,0.864,0.547,1.035,0.737,0.351,0.600,0.565,��,1.5,��
2022/06/25,04:10,0.594,0.864,0.544,1.037,0.738,0.350,0.601,0.565,�k��,2.8,��
2022/06/25,04:20,0.592,0.867,0.548,1.036,0.737,0.350,0.601,0.565,���k��,3.4,��
2022/06/25,04:30,0.592,0.864,0.546,1.036,0.735,0.349,0.600,0.566,���k��,2.3,��
2022/06/25,04:40,0.594,0.864,0.546,1.037,0.736,0.349,0.602,0.565,��,4.1,��
2022/06/25,04:50,0.592,0.865,0.548,1.036,0.736,0.349,0.600,0.567,���쐼,2.3,��
2022/06/25,05:00,0.591,0.865,0.546,1.036,0.737,0.349,0.601,0.566,���쐼,1.7,��
2022/06/25,05:10,0.592,0.865,0.545,1.035,0.735,0.349,0.602,0.565,���k��,3.2,��
2022/06/25,05:20,0.594,0.866,0.546,1.035,0.736,0.348,0.600,0.566,�k��,4.5,��
2022/06/25,05:30,0.591,0.863,0.546,1.037,0.738,0.349,0.600,0.566,��,5.7,��
2022/06/25,05:40,0.593,0.863,0.546,1.036,0.736,0.348,0.599,0.566,��,4.2,��
2022/06/25,05:50,0.592,0.865,0.547,1.034,0.737,0.349,0.598,0.564,���k��,4.6,�L
2022/06/25,06:00,0.593,0.862,0.545,1.039,0.735,0.349,0.599,0.565,�k��,5.0,�L
2022/06/25,06:10,0.592,0.865,0.545,1.035,0.736,0.350,0.600,0.564,�k��,4.5,��
2022/06/25,06:20,0.592,0.865,0.546,1.038,0.734,0.348,0.599,0.565,�k�k��,4.2,��
2022/06/25,06:30,0.592,0.867,0.545,1.038,0.736,0.349,0.600,0.565,�k,3.4,��
2022/06/25,06:40,0.593,0.864,0.545,1.036,0.736,0.348,0.600,0.566,-,CALM,��
2022/06/25,06:50,0.595,0.865,0.547,1.039,0.734,0.348,0.601,0.565,�k��,0.6,��
2022/06/25,07:00,0.592,0.866,0.547,1.034,0.737,0.350,0.601,0.563,���k��,4.1,��
2022/06/25,07:10,0.594,0.863,0.546,1.035,0.737,0.347,0.601,0.564,��,6.9,��
2022/06/25,07:20,0.594,0.864,0.545,1.038,0.736,0.350,0.600,0.563,��,7.3,��
2022/06/25,07:30,0.594,0.865,0.545,1.035,0.735,0.349,0.600,0.562,���k��,7.5,��
2022/06/25,07:40,0.594,0.863,0.546,1.038,0.737,0.348,0.600,0.563,���k��,5.7,��
2022/06/25,07:50,0.595,0.864,0.546,1.036,0.735,0.348,0.601,0.562,���k��,6.2,��
2022/06/25,08:00,0.596,0.863,0.546,1.037,0.736,0.348,0.601,0.563,��,6.4,��
2022/06/25,08:10,0.596,0.863,0.546,1.040,0.738,0.349,0.602,0.564,���k��,8.1,��
2022/06/25,08:20,0.596,0.863,0.546,1.038,0.738,0.349,0.604,0.564,���k��,9.7,��
2022/06/25,08:30,0.596,0.865,0.547,1.040,0.737,0.348,0.602,0.564,���k��,6.9,��
2022/06/25,08:40,0.594,0.866,0.547,1.040,0.737,0.348,0.604,0.565,���k��,6.9,��
2022/06/25,08:50,0.596,0.867,0.546,1.038,0.737,0.350,0.602,0.566,���k��,5.3,��
2022/06/25,09:00,0.597,0.868,0.548,1.039,0.736,0.348,0.602,0.565,��,4.5,��
2022/06/25,09:10,0.597,0.869,0.548,1.038,0.738,0.350,0.602,0.565,��,5.5,��
2022/06/25,09:20,0.597,0.870,0.547,1.040,0.738,0.350,0.602,0.565,��,6.2,��
2022/06/25,09:30,0.597,0.869,0.547,1.042,0.740,0.350,0.602,0.565,��,6.5,��
2022/06/25,09:40,0.597,0.870,0.549,1.042,0.741,0.350,0.605,0.565,��,6.2,��
2022/06/25,09:50,0.597,0.871,0.547,1.043,0.740,0.349,0.603,0.566,��,5.1,��
2022/06/25,10:00,0.599,0.871,0.549,1.042,0.742,0.350,0.602,0.565,��,4.8,��
2022/06/25,10:10,0.599,0.870,0.549,1.044,0.740,0.350,0.601,0.568,��,5.0,��
2022/06/25,10:20,0.599,0.869,0.547,1.042,0.743,0.351,0.600,0.565,�쐼,2.8,��
2022/06/25,10:30,0.598,0.870,0.548,1.042,0.742,0.350,0.602,0.566,��쓌,6.0,��
2022/06/25,10:40,0.599,0.873,0.549,1.042,0.744,0.350,0.602,0.566,��,5.6,��
2022/06/25,10:50,0.598,0.873,0.548,1.042,0.744,0.349,0.602,0.565,��,5.5,��
2022/06/25,11:00,0.598,0.872,0.551,1.042,0.743,0.352,0.602,0.566,��,5.9,��
2022/06/25,11:10,0.599,0.871,0.550,1.039,0.743,0.350,0.601,0.567,��,6.9,��
2022/06/25,11:20,0.601,0.873,0.552,1.039,0.745,0.351,0.602,0.567,��쓌,5.8,��
2022/06/25,11:30,0.601,0.872,0.551,1.040,0.745,0.352,0.602,0.568,��쓌,7.2,��
2022/06/25,11:40,0.599,0.870,0.551,1.041,0.744,0.352,0.602,0.568,��,6.0,��
2022/06/25,11:50,0.600,0.872,0.552,1.042,0.745,0.351,0.602,0.570,��,6.4,��
2022/06/25,12:00,0.601,0.872,0.551,1.042,0.746,0.353,0.602,0.570,��,7.1,��
2022/06/25,12:10,0.600,0.873,0.552,1.041,0.744,0.350,0.603,0.567,��쓌,7.0,��
2022/06/25,12:20,0.601,0.872,0.550,1.044,0.747,0.351,0.603,0.568,��쓌,7.1,��
2022/06/25,12:30,0.601,0.873,0.551,1.041,0.746,0.351,0.601,0.570,��,6.3,��
2022/06/25,12:40,0.599,0.872,0.551,1.044,0.744,0.351,0.604,0.567,��쓌,6.0,��
2022/06/25,12:50,0.600,0.873,0.551,1.042,0.747,0.351,0.603,0.568,��쓌,6.9,��
2022/06/25,13:00,0.601,0.873,0.553,1.041,0.746,0.352,0.603,0.568,��,6.9,��
2022/06/25,13:10,0.600,0.871,0.552,1.043,0.748,0.352,0.605,0.569,��,6.5,��
2022/06/25,13:20,0.601,0.873,0.551,1.043,0.748,0.352,0.603,0.568,��쓌,6.6,��
2022/06/25,13:30,0.601,0.871,0.551,1.043,0.749,0.350,0.604,0.567,��,7.7,��
2022/06/25,13:40,0.600,0.876,0.553,1.045,0.747,0.351,0.604,0.567,��쓌,7.2,��
2022/06/25,13:50,0.598,0.874,0.551,1.043,0.747,0.351,0.604,0.568,��,9.1,��
2022/06/25,14:00,0.599,0.874,0.552,1.045,0.747,0.351,0.604,0.566,��,6.2,��
2022/06/25,14:10,0.600,0.875,0.552,1.046,0.747,0.351,0.603,0.567,��쓌,7.7,��
2022/06/25,14:20,0.597,0.872,0.549,1.047,0.746,0.349,0.602,0.568,��쓌,9.0,��
2022/06/25,14:30,0.599,0.873,0.548,1.047,0.747,0.349,0.600,0.567,��쓌,8.1,��
2022/06/25,14:40,0.597,0.873,0.549,1.047,0.744,0.350,0.601,0.565,��쓌,7.7,��
2022/06/25,14:50,0.596,0.874,0.550,1.046,0.745,0.348,0.601,0.564,��,6.7,��
2022/06/25,15:00,0.598,0.875,0.549,1.043,0.747,0.348,0.600,0.565,��,5.3,��
2022/06/25,15:10,0.596,0.874,0.548,1.044,0.746,0.349,0.600,0.565,��쓌,6.6,��
2022/06/25,15:20,0.598,0.877,0.546,1.048,0.746,0.349,0.602,0.564,��쓌,7.7,��
2022/06/25,15:30,0.596,0.874,0.548,1.047,0.747,0.348,0.601,0.565,��쓌,7.2,��
2022/06/25,15:40,0.598,0.873,0.546,1.045,0.747,0.347,0.601,0.566,��쓌,5.7,��
2022/06/25,15:50,0.598,0.873,0.550,1.047,0.745,0.348,0.601,0.566,��쓌,5.7,��
2022/06/25,16:00,0.597,0.873,0.548,1.046,0.747,0.349,0.602,0.564,��쓌,4.5,��
2022/06/25,16:10,0.597,0.874,0.547,1.047,0.746,0.349,0.600,0.564,��쓌,3.5,��
2022/06/25,16:20,0.598,0.872,0.548,1.046,0.746,0.348,0.601,0.564,��쓌,4.4,��
2022/06/25,16:30,0.595,0.873,0.548,1.045,0.745,0.348,0.601,0.565,��쓌,3.6,��
2022/06/25,16:40,0.597,0.872,0.549,1.044,0.747,0.348,0.601,0.563,��쓌,3.9,��
2022/06/25,16:50,0.597,0.874,0.550,1.042,0.746,0.348,0.601,0.565,��,2.3,��
2022/06/25,17:00,0.596,0.872,0.548,1.045,0.746,0.348,0.600,0.564,�k�k��,0.6,��
2022/06/25,17:10,0.598,0.873,0.550,1.047,0.746,0.348,0.599,0.565,�k,1.1,��
2022/06/25,17:20,0.596,0.872,0.550,1.045,0.746,0.347,0.599,0.565,-,CALM,��
2022/06/25,17:30,0.595,0.873,0.549,1.046,0.747,0.346,0.599,0.566,�k�k��,1.5,��
2022/06/25,17:40,0.594,0.872,0.546,1.044,0.746,0.347,0.599,0.566,-,CALM,��
2022/06/25,17:50,0.595,0.872,0.547,1.046,0.743,0.348,0.599,0.565,�k�k��,1.1,��
2022/06/25,18:00,0.596,0.870,0.547,1.046,0.745,0.348,0.600,0.563,�k�k��,2.5,��
2022/06/25,18:10,0.596,0.871,0.547,1.045,0.744,0.347,0.600,0.566,�k�k��,2.0,��
2022/06/25,18:20,0.596,0.873,0.548,1.044,0.746,0.349,0.599,0.565,�k�k��,2.6,��
2022/06/25,18:30,0.597,0.871,0.548,1.046,0.745,0.348,0.600,0.564,�k,2.6,��
2022/06/25,18:40,0.594,0.873,0.548,1.047,0.747,0.348,0.599,0.565,�k�k��,4.7,��
2022/06/25,18:50,0.598,0.873,0.547,1.043,0.746,0.347,0.598,0.565,�k��,2.3,��
2022/06/25,19:00,0.594,0.872,0.549,1.044,0.746,0.347,0.599,0.566,�k��,1.5,��
2022/06/25,19:10,0.597,0.874,0.547,1.044,0.746,0.347,0.601,0.566,��,0.8,��
2022/06/25,19:20,0.595,0.872,0.546,1.044,0.747,0.349,0.600,0.566,��,0.9,��
2022/06/25,19:30,0.597,0.873,0.546,1.045,0.745,0.348,0.601,0.566,�쐼,0.6,��
2022/06/25,19:40,0.597,0.873,0.547,1.045,0.746,0.348,0.600,0.567,��,1.5,��
2022/06/25,19:50,0.596,0.874,0.547,1.043,0.748,0.349,0.599,0.567,���k��,2.3,��
2022/06/25,20:00,0.597,0.875,0.550,1.046,0.747,0.348,0.600,0.567,�k��,3.3,�L
2022/06/25,20:10,0.597,0.874,0.551,1.044,0.748,0.348,0.599,0.567,�k�k��,3.6,�L
2022/06/25,20:20,0.599,0.876,0.550,1.047,0.748,0.351,0.602,0.568,�k�k��,4.7,�L
2022/06/25,20:30,0.600,0.876,0.552,1.049,0.752,0.352,0.602,0.567,�k��,4.5,�L
2022/06/25,20:40,0.604,0.878,0.555,1.050,0.750,0.356,0.603,0.567,�k��,3.4,�L
2022/06/25,20:50,0.601,0.876,0.555,1.051,0.750,0.356,0.601,0.567,�k��,4.0,�L
2022/06/25,21:00,0.604,0.877,0.556,1.052,0.751,0.356,0.602,0.569,�k��,4.6,�L
2022/06/25,21:10,0.603,0.878,0.555,1.050,0.751,0.357,0.603,0.569,�k��,4.1,��
2022/06/25,21:20,0.601,0.879,0.554,1.052,0.751,0.355,0.603,0.568,�k��,3.7,��
2022/06/25,21:30,0.600,0.877,0.553,1.050,0.750,0.355,0.602,0.569,���k��,3.3,��
2022/06/25,21:40,0.600,0.877,0.554,1.048,0.745,0.353,0.602,0.567,���k��,3.7,��
2022/06/25,21:50,0.600,0.874,0.553,1.049,0.748,0.353,0.600,0.567,���k��,4.3,��
2022/06/25,22:00,0.600,0.874,0.552,1.048,0.749,0.351,0.601,0.566,���k��,2.6,��
2022/06/25,22:10,0.597,0.873,0.552,1.048,0.747,0.351,0.599,0.566,�k��,2.0,��
2022/06/25,22:20,0.598,0.872,0.552,1.048,0.744,0.350,0.600,0.565,��,2.6,��
2022/06/25,22:30,0.596,0.871,0.550,1.047,0.745,0.350,0.600,0.566,���k��,3.1,��
2022/06/25,22:40,0.597,0.874,0.551,1.046,0.746,0.350,0.600,0.567,���k��,3.8,��
2022/06/25,22:50,0.597,0.873,0.552,1.046,0.744,0.350,0.599,0.565,���k��,3.9,��
2022/06/25,23:00,0.597,0.871,0.550,1.046,0.747,0.349,0.599,0.566,���k��,3.4,��
2022/06/25,23:10,0.598,0.871,0.550,1.048,0.745,0.350,0.600,0.566,���k��,3.3,��
2022/06/25,23:20,0.597,0.872,0.548,1.050,0.744,0.350,0.600,0.566,���k��,3.1,��
2022/06/25,23:30,0.596,0.871,0.550,1.047,0.744,0.350,0.600,0.565,���k��,2.2,��
2022/06/25,23:40,0.597,0.872,0.548,1.048,0.743,0.350,0.600,0.566,���k��,1.2,��
2022/06/25,23:50,0.595,0.871,0.549,1.047,0.743,0.349,0.601,0.567,�k�k��,0.9,��
